Regional Weather Roundup
Issued by NWS

Home | Current Version | Previous Version | Graphics & Text | Print | Product List | Glossary On
Versions: 1 2 3 4 5 6 7 8 9 10 11 12 13 14 15 16 17 18 19 20 21 22 23 24 25 26 27 28 29 30 31 32 33 34 35 36 37 38 39 40 41 42 43 44 45 46 47 48 49 50
000
ASUS45 KBOU 231807
RWRCO

WEATHER ROUNDUP FOR COLORADO
NATIONAL WEATHER SERVICE DENVER/BOULDER CO
1200 PM MDT MON MAY 23 2016

NOTE: "FAIR" INDICATES FEW OR NO CLOUDS BELOW 12000 FEET WITH NO
SIGNIFICANT WEATHER AND/OR OBSTRUCTIONS TO VISIBILITY.

COZ001>005-013-030-031-231900-
...NORTHWEST COLORADO...

CITY           SKY/WX    TMP DP  RH WIND       PRES   REMARKS
CRAIG          FAIR      60  26  27 NW7       29.95F
HAYDEN         FAIR      55  21  26 N5        29.96F
MEEKER         FAIR      60  22  23 CALM      29.95F
MOUNT WERNER   NOT AVBL
STEAMBOAT SPGS FAIR      56  19  23 W6        29.96F
WALDEN         FAIR      54  16  22 W16G24    30.00F
$$

COZ006>008-011-231900-
...WEST CENTRAL VALLEYS...

CITY           SKY/WX    TMP DP  RH WIND       PRES   REMARKS
GRAND JUNCTION FAIR      63  23  21 SW3       29.89F
MONTROSE       FAIR      66  27  23 NW9       29.94F
EAGLE          CLOUDY    61  21  21 CALM      29.96F
RIFLE          FAIR      62  26  25 N3        29.92F
DELTA          FAIR      69  20  15 CALM      29.91F
NUCLA          FAIR      66  23  19 S8G23     29.98S
$$

COZ017>023-064>068-231900-
...SOUTHWEST COLORADO...

CITY           SKY/WX    TMP DP  RH WIND       PRES   REMARKS
DURANGO        FAIR      61  23  23 S5        30.02F
CORTEZ         FAIR      65  22  19 SW10G20   29.98S
PAGOSA SPRINGS FAIR      57  13  17 SW7G20    30.07S
TELLURIDE      FAIR      53  17  23 SE6       30.07S
WOLF CREEK PAS FAIR      36  18  48 SW23G40   30.23S
$$

COZ009-010-012-014-032>034-037-058>063-231900-
...CENTRAL COLORADO...

CITY           SKY/WX    TMP DP  RH WIND       PRES   REMARKS
ASPEN          PTSUNNY   58  23  26 N9        29.96F
BUENA VISTA    FAIR      59  19  21 SE14      29.97F
COPPER MTN     NOT AVBL
BERTHOUD PASS  FAIR      32  23  69 W8G23     30.17S WCI  25
COTTONWOOD PAS PTSUNNY   54  16  22 SE13G22   30.06S
GUNNISON       FAIR      57  19  23 NW5       30.00F
KREMMLING      PTSUNNY   59  19  21 W15G21    29.98F
LEADVILLE      LGT RAIN  44  17  33 SW14G31   30.06R
MONARCH PASS   CLOUDY    37  19  48 S16G30    30.26F
SALIDA         FAIR      65  17  16 S16G29    30.03F
SUNLIGHT       CLOUDY    41  25  52 W3        30.15R
WILKERSON PASS PTSUNNY   48  23  37 SW9G22    30.15S
$$

COZ069>075-231900-
...SAN LUIS VALLEY/SANGRE DE CRISTO MOUNTAINS...

CITY           SKY/WX    TMP DP  RH WIND       PRES   REMARKS
ALAMOSA        FAIR      66  16  14 S23G30    29.99F
LA VETA PASS   FAIR      54  27  35 S14G26    30.14S
SAGUACHE       FAIR      61  21  21 S10G23    30.01F
$$

COZ035-036-038>040-231900-
...NORTHERN COLORADO FRONT RANGE...

CITY           SKY/WX    TMP DP  RH WIND       PRES   REMARKS
DENVER INTL AP PTSUNNY   65  37  35 SE22G32   29.90F
DMNS CITY PARK   N/A     66  35  32 E10G25    29.89F
AURORA         PTSUNNY   61  33  34 SE24G33   29.91F
FRONT RANGE AP PTSUNNY   63  32  31 SE18G35   29.93F
ERIE MUNI ARPT FAIR      66  37  34 S7G16     29.91F
BOULDER MUN AP CLOUDY    61  34  36 SE6       29.91
CENTENNIAL     PTSUNNY   66  33  29 SE20G33   29.91F
BROOMFIELD     PTSUNNY   64  36  34 SE6       29.93F
FORT COLLINS   FAIR      63  41  45 S14G20    29.92F
LONGMONT       FAIR      64  35  34 SE8       29.92F
$$

COZ041-046-047-076>085-087-088-231900-
...PIKES PEAK/PALMER DIVIDE AND SOUTHERN FOOTHILLS...

CITY           SKY/WX    TMP DP  RH WIND       PRES   REMARKS
COLO. SPRINGS  FAIR      63  29  27 S20       29.99F
A. F. ACADEMY  FAIR      61  30  31 S17G24    29.97F
SCHRIEVER AFB  NOT AVBL
ELLICOTT       FAIR     N/A N/A N/A S13G23    29.96F
FALCON         FAIR      61  26  27 S9        30.01F
FORT CARSON    FAIR      63  32  31 SE8       29.96F
LIMON          FAIR      64  34  32 E7G17     29.95S
MONUMENT HILL  FAIR      57  32  38 S23       30.00F
TRINIDAD       FAIR      65  40  39 VRB5      29.95F
$$

COZ042>045-048>051-090-091-231900-
...NORTHEAST COLORADO...

CITY           SKY/WX    TMP DP  RH WIND       PRES   REMARKS
GREELEY ARPT   FAIR      66  41  39 S9        29.92F
AKRON          FAIR      65  31  28 CALM      29.92S
BURLINGTON     FAIR      71  38  29 MISG      29.90S
WRAY           FAIR      72  32  23 NE6       29.89S
STERLING       FAIR      68  37  32 N3        29.89S
HOLYOKE        FAIR      73  34  23 CALM      29.88F
FORT MORGAN    FAIR      64  39  40 E3        29.92F
$$

COZ086-089-092>099-231900-
...SOUTHEAST COLORADO...

CITY           SKY/WX    TMP DP  RH WIND       PRES   REMARKS
PUEBLO         FAIR      70  32  24 SE12      29.92F
LA JUNTA       NOT AVBL
LAMAR          FAIR      76  42  29 E14       29.85F
SPRINGFIELD      N/A     71  51  49 VRB6      29.87F
$$



USA.gov is the U.S. government's official web portal to all federal, state and local government web resources and services.